CW4610 Weather Reports


Display with metric or nautical units.
time (UTC)temp
F
wind
direction
speed
MPH
gust
MPH
rain 1hr
in
rain 24hr
in
rain mn
in
humidity
%
barometer
mb
20260504020520 82 23 5.0 8.0 0.00 0.00 0.00 27 1008.5
20260504015531 83 23 4.0 7.0 0.00 0.00 0.00 27 1008.6
20260504014539 83 0 6.0 10.0 0.00 0.00 0.00 25 1008.6
20260504013539 83 45 4.0 9.0 0.00 0.00 0.00 22 1008.6
20260504012548 83 23 7.0 10.0 0.00 0.00 0.00 23 1008.8
20260504011519 84 23 6.0 12.0 0.00 0.00 0.00 22 1008.8
20260504010539 84 23 7.0 12.0 0.00 0.00 0.00 22 1008.8
20260504005520 84 23 7.0 13.0 0.00 0.00 0.00 22 1008.8
20260504004519 84 23 9.0 17.0 0.00 0.00 0.00 22 1009.0
20260504003520 84 23 8.0 13.0 0.00 0.00 0.00 22 1009.0
20260504002519 84 0 8.0 13.0 0.00 0.00 0.00 21 1009.2
20260504001519 85 0 9.0 14.0 0.00 0.00 0.00 21 1009.3
20260504000518 85 23 8.0 18.0 0.00 0.00 0.00 22 1009.3
20260503235600 85 23 8.0 16.0 0.00 0.00 0.00 21 1009.4
20260503234519 85 23 9.0 18.0 0.00 0.00 0.00 20 1009.6
20260503233518 85 23 9.0 14.0 0.00 0.00 0.00 20 1009.6
20260503232519 86 338 8.0 13.0 0.00 0.00 0.00 19 1009.8
20260503231519 86 23 8.0 14.0 0.00 0.00 0.00 19 1009.9
20260503230539 86 23 10.0 16.0 0.00 0.00 0.00 20 1009.9
20260503225519 86 23 7.0 13.0 0.00 0.00 0.00 21 1010.0
20260503224525 86 23 8.0 13.0 0.00 0.00 0.00 21 1010.2
20260503223519 86 23 9.0 13.0 0.00 0.00 0.00 22 1010.3
20260503222519 86 23 8.0 15.0 0.00 0.00 0.00 21 1010.4
20260503221541 86 45 7.0 11.0 0.00 0.00 0.00 22 1010.6
20260503220609 86 0 7.0 12.0 0.00 0.00 0.00 22 1010.6
20260503215518 86 0 6.0 13.0 0.00 0.00 0.00 23 1010.8
20260503214519 86 0 8.0 12.0 0.00 0.00 0.00 25 1010.9
20260503213519 86 0 6.0 11.0 0.00 0.00 0.00 25 1010.9
20260503212523 86 0 8.0 13.0 0.00 0.00 0.00 26 1010.9
20260503211518 86 0 6.0 10.0 0.00 0.00 0.00 27 1011.2
20260503210519 86 315 6.0 9.0 0.00 0.00 0.00 28 1011.2
20260503205539 86 0 6.0 9.0 0.00 0.00 0.00 29 1011.4
20260503204538 85 338 5.0 9.0 0.00 0.00 0.00 27 1011.5
20260503203519 84 0 3.0 6.0 0.00 0.00 0.00 29 1011.5
20260503202526 84 23 6.0 10.0 0.00 0.00 0.00 27 1011.9
20260503201518 84 0 5.0 10.0 0.00 0.00 0.00 32 1012.1
20260503200518 84 0 6.0 10.0 0.00 0.00 0.00 34 1012.2
20260503195532 84 315 4.0 9.0 0.00 0.00 0.00 35 1012.4
20260503194517 84 0 4.0 8.0 0.00 0.00 0.00 33 1012.5
20260503193521 84 225 3.0 6.0 0.00 0.00 0.00 34 1012.5
20260503192519 83 180 3.0 5.0 0.00 0.00 0.00 32 1012.7
20260503191518 82 225 3.0 5.0 0.00 0.00 0.00 32 1012.9
20260503190519 81 225 4.0 5.0 0.00 0.00 0.00 31 1012.9
20260503185518 81 225 3.0 6.0 0.00 0.00 0.00 34 1013.0
20260503184518 80 225 3.0 6.0 0.00 0.00 0.00 39 1013.1
20260503183518 79 225 3.0 5.0 0.00 0.00 0.00 41 1013.2
20260503182539 78 225 2.0 4.0 0.00 0.00 0.00 42 1013.3
20260503181519 77 225 2.0 5.0 0.00 0.00 0.00 43 1013.4
20260503180520 76 315 1.0 3.0 0.00 0.00 0.00 46 1013.4
20260503175520 75 180 2.0 5.0 0.00 0.00 0.00 45 1013.5
20260503174521 74 293 2.0 5.0 0.00 0.00 0.00 48 1013.6
20260503173540 72 315 2.0 4.0 0.00 0.00 0.00 48 1013.7
20260503172555 70 248 1.0 3.0 0.00 0.00 0.00 47 1014.0
20260503171520 69 315 1.0 3.0 0.00 0.00 0.00 50 1014.0
20260503170520 67 45 1.0 3.0 0.00 0.00 0.00 53 1014.0
20260503150520 55 0 1.0 2.0 0.00 0.00 0.00 79 1015.1
20260503130540 49 0 2.0 3.0 0.00 0.00 0.00 86 1015.0
20260503110530 51 0 1.0 2.0 0.00 0.00 0.00 81 1014.9
20260503081518 56 23 3.0 5.0 0.00 0.00 0.00 71 1014.8
20260503080539 56 23 2.0 3.0 0.00 0.00 0.00 72 1014.8
20260503072616 58 45 1.0 2.0 0.00 0.00 0.00 68 1014.9
20260503071519 59 23 1.0 3.0 0.00 0.00 0.00 68 1014.7
20260503070559 59 68 1.0 2.0 0.00 0.00 0.00 66 1014.6
20260503054519 65 338 1.0 3.0 0.00 0.00 0.00 62 1014.2
20260503053600 65 23 2.0 3.0 0.00 0.00 0.00 60 1014.2
20260503052521 67 0 2.0 4.0 0.00 0.00 0.00 57 1014.1
20260503051539 68 0 2.0 3.0 0.00 0.00 0.00 52 1014.0
20260503050519 69 90 1.0 2.0 0.00 0.00 0.00 48 1014.0
20260503045529 70 0 1.0 2.0 0.00 0.00 0.00 45 1013.9
20260503044534 72 270 1.0 2.0 0.00 0.00 0.00 43 1013.7
20260503043533 73 45 2.0 6.0 0.00 0.00 0.00 37 1013.7
20260503042519 73 45 3.0 7.0 0.00 0.00 0.00 37 1013.6
20260503041520 73 45 3.0 6.0 0.00 0.00 0.00 36 1013.5
20260503040538 74 90 5.0 9.0 0.00 0.00 0.00 37 1013.4
20260503035519 74 90 5.0 8.0 0.00 0.00 0.00 36 1013.3
20260503034520 75 45 4.0 9.0 0.00 0.00 0.00 35 1013.3
20260503033519 76 315 0.0 1.0 0.00 0.00 0.00 35 1013.3
20260503032539 77 23 3.0 6.0 0.00 0.00 0.00 32 1013.0
20260503031540 77 23 5.0 9.0 0.00 0.00 0.00 32 1013.0
20260503030519 78 23 6.0 10.0 0.00 0.00 0.00 31 1012.9
20260503025540 78 23 6.0 12.0 0.00 0.00 0.00 31 1012.9
20260503024600 78 23 7.0 12.0 0.00 0.00 0.00 32 1012.9
20260503023519 78 23 7.0 12.0 0.00 0.00 0.00 32 1012.9
20260503022520 79 23 6.0 11.0 0.00 0.00 0.00 31 1012.8
20260503021541 79 0 7.0 11.0 0.00 0.00 0.00 31 1012.9